This is the latest recevied weather packets stored in our database for station/object VA7SHG-1. If no packets are shown the sender has not sent any weather packets the latest 10 day(s).
| Time | Temp. | Humidity | Pressure | Rain* | Wind** | Luminosity | Snow |
|---|---|---|---|---|---|---|---|
| 1777446316 | 11.67° C | 73% | 1025.4 hPa | 0 mm | - | 0 W/m² | - |
| 1777443325 | 12.22° C | 72% | 1025.3 hPa | 0 mm | - | 0 W/m² | - |
| 1777442124 | 12.78° C | 71% | 1025.2 hPa | 0 mm | - | 0 W/m² | - |
| 1777440925 | 12.78° C | 71% | 1025.1 hPa | 0 mm | - | 0 W/m² | - |
| 1777439724 | 12.78° C | 71% | 1025 hPa | 0 mm | - | 0 W/m² | - |
| 1777439117 | 12.78° C | 70% | 1024.9 hPa | 0 mm | - | 0 W/m² | - |
| 1777428925 | 13.89° C | 67% | 1023.8 hPa | 0 mm | - | 28 W/m² | - |
| 1777425916 | 13.89° C | 66% | 1023.7 hPa | 0 mm | - | 66 W/m² | - |
| 1777425344 | 13.89° C | 65% | 1023.7 hPa | 0 mm | - | 67 W/m² | - |
| 1777424125 | 14.44° C | 63% | 1023.7 hPa | 0 mm | - | 79 W/m² | - |
| 1777421116 | 15° C | 60% | 1023.2 hPa | 0 mm | - | 190 W/m² | - |
| 1777417516 | 15° C | 58% | 1023.1 hPa | 0 mm | - | 319 W/m² | - |
| 1777410926 | 14.44° C | 62% | 1023.4 hPa | 0 mm | - | 336 W/m² | - |
| 1777397723 | 12.22° C | 66% | 1023.1 hPa | 0 mm | - | 330 W/m² | - |
| 1777396524 | 12.22° C | 66% | 1023 hPa | 0 mm | - | 295 W/m² | - |
| 1777392317 | 11.11° C | 72% | 1022.6 hPa | 0 mm | - | 130 W/m² | - |
| 1777391118 | 10.56° C | 73% | 1022.5 hPa | 0 mm | - | 96 W/m² | - |
| 1777387517 | 10.56° C | 73% | 1022.1 hPa | 0 mm | - | 59 W/m² | - |
| 1777386317 | 11.11° C | 72% | 1021.8 hPa | 0 mm | - | 40 W/m² | - |
| 1777380338 | 11.11° C | 73% | 1020.6 hPa | 0 mm | - | 1 W/m² | - |
| 1777375517 | 11.11° C | 81% | 1020.2 hPa | 0 mm | - | 0 W/m² | - |
| 1777370718 | 11.67° C | 80% | 1019.8 hPa | 0 mm | - | 0 W/m² | - |
| 1777369517 | 11.67° C | 81% | 1019.8 hPa | 0 mm | - | 0 W/m² | - |
| 1777368923 | 11.67° C | 81% | 1019.8 hPa | 0 mm | - | 0 W/m² | - |
| 1777365918 | 11.67° C | 79% | 1019.8 hPa | 0 mm | - | 0 W/m² | - |
* Rain latest hour (hover to see other rain measurements)
** Current wind speed in m/s (hover to see current wind gust speed)